Time,TemperatureF,DewpointF,PressureIn,WindDirection,WindDirectionDegrees,WindSpeedMPH,WindSpeedGustMPH,Humidity,HourlyPrecipIn,Conditions,Clouds,dailyrainin,SoftwareType,DateUTC
2013-03-28 00:00:00,41.2,27.9,29.92,NW,310,0.0,0.0,59,0.00,,,0.00,meteohub,2013-03-28 04:00:00,
2013-03-28 00:01:00,41.2,27.9,29.92,NW,310,0.0,0.0,59,0.00,,,0.00,meteohub,2013-03-28 04:01:00,
2013-03-28 00:02:00,41.4,28.0,29.92,NW,310,0.0,0.0,59,0.00,,,0.00,meteohub,2013-03-28 04:02:00,
2013-03-28 00:07:00,41.4,28.0,29.92,NW,310,0.0,0.0,59,0.00,,,0.00,meteohub,2013-03-28 04:07:00,
2013-03-28 00:12:00,41.2,27.9,29.92,NW,310,0.0,0.0,59,0.00,,,0.00,meteohub,2013-03-28 04:12:00,
2013-03-28 00:17:00,41.2,27.9,29.92,NW,310,0.0,0.0,59,0.00,,,0.00,meteohub,2013-03-28 04:17:00,
2013-03-28 00:22:00,41.0,28.2,29.92,NW,310,0.0,0.0,60,0.00,,,0.00,meteohub,2013-03-28 04:22:00,
2013-03-28 00:27:00,40.8,28.0,29.92,NW,310,0.0,0.0,60,0.00,,,0.00,meteohub,2013-03-28 04:27:00,
2013-03-28 00:32:00,40.6,27.9,29.92,NW,310,0.0,0.0,60,0.00,,,0.00,meteohub,2013-03-28 04:32:00,
2013-03-28 00:37:00,40.6,27.9,29.92,NW,310,0.0,0.0,60,0.00,,,0.00,meteohub,2013-03-28 04:37:00,
2013-03-28 00:42:00,40.5,27.7,29.92,NW,310,0.0,0.0,60,0.00,,,0.00,meteohub,2013-03-28 04:42:00,
2013-03-28 00:47:00,40.5,27.7,29.92,NW,310,0.0,0.0,60,0.00,,,0.00,meteohub,2013-03-28 04:47:00,
2013-03-28 00:52:00,40.5,28.0,29.92,NW,310,0.0,0.0,61,0.00,,,0.00,meteohub,2013-03-28 04:52:00,
2013-03-28 00:57:00,40.3,27.9,29.92,NW,310,0.0,0.0,61,0.00,,,0.00,meteohub,2013-03-28 04:57:00,
2013-03-28 01:02:00,40.3,28.2,29.92,NW,310,0.0,0.0,62,0.00,,,0.00,meteohub,2013-03-28 05:02:00,
2013-03-28 01:07:00,40.3,27.9,29.92,NW,310,0.0,0.0,61,0.00,,,0.00,meteohub,2013-03-28 05:07:00,
2013-03-28 01:13:00,40.1,28.0,29.92,NW,310,0.0,0.0,62,0.00,,,0.00,meteohub,2013-03-28 05:13:00,
2013-03-28 01:18:00,39.9,28.0,29.92,NW,310,0.0,0.0,62,0.00,,,0.00,meteohub,2013-03-28 05:18:00,
2013-03-28 01:23:00,39.7,27.9,29.92,NW,310,0.0,0.0,62,0.00,,,0.00,meteohub,2013-03-28 05:23:00,
2013-03-28 01:28:00,39.7,28.2,29.92,NW,310,0.0,0.0,63,0.00,,,0.00,meteohub,2013-03-28 05:28:00,
2013-03-28 01:33:00,39.6,28.0,29.92,NW,310,0.0,0.0,63,0.00,,,0.00,meteohub,2013-03-28 05:33:00,
2013-03-28 01:38:00,39.6,28.4,29.92,NW,310,0.0,0.0,64,0.00,,,0.00,meteohub,2013-03-28 05:38:00,
2013-03-28 01:43:00,39.6,28.4,29.92,NW,310,0.0,0.0,64,0.00,,,0.00,meteohub,2013-03-28 05:43:00,
2013-03-28 01:48:00,39.4,28.6,29.92,NW,310,0.0,0.0,65,0.00,,,0.00,meteohub,2013-03-28 05:48:00,
2013-03-28 01:53:00,39.2,28.4,29.92,NW,310,0.0,0.0,65,0.00,,,0.00,meteohub,2013-03-28 05:53:00,
2013-03-28 01:59:00,39.0,28.2,29.91,NW,310,0.0,0.0,65,0.00,,,0.00,meteohub,2013-03-28 05:59:00,
2013-03-28 02:04:00,39.0,28.2,29.92,NW,310,0.0,0.0,65,0.00,,,0.00,meteohub,2013-03-28 06:04:00,
2013-03-28 02:09:00,39.0,28.6,29.92,NW,310,0.0,0.0,66,0.00,,,0.00,meteohub,2013-03-28 06:09:00,
2013-03-28 02:14:00,38.8,28.4,29.92,NW,310,0.0,0.0,66,0.00,,,0.00,meteohub,2013-03-28 06:14:00,
2013-03-28 02:19:00,38.8,28.8,29.92,NW,310,0.0,0.0,67,0.00,,,0.00,meteohub,2013-03-28 06:19:00,
2013-03-28 02:24:00,38.7,28.6,29.92,NW,310,0.0,0.0,67,0.00,,,0.00,meteohub,2013-03-28 06:24:00,
2013-03-28 02:29:00,38.5,28.8,29.91,NW,310,0.0,0.0,68,0.00,,,0.00,meteohub,2013-03-28 06:29:00,
2013-03-28 02:34:00,38.5,28.8,29.92,NW,310,0.0,0.0,68,0.00,,,0.00,meteohub,2013-03-28 06:34:00,
2013-03-28 02:39:00,38.5,28.8,29.92,NW,310,0.0,0.0,68,0.00,,,0.00,meteohub,2013-03-28 06:39:00,
2013-03-28 02:44:00,38.3,28.9,29.92,NW,310,0.0,0.0,69,0.00,,,0.00,meteohub,2013-03-28 06:44:00,
2013-03-28 02:49:00,38.3,28.9,29.91,NW,310,0.0,0.0,69,0.00,,,0.00,meteohub,2013-03-28 06:49:00,
2013-03-28 02:54:00,38.3,28.9,29.91,NW,310,0.0,0.0,69,0.00,,,0.00,meteohub,2013-03-28 06:54:00,
2013-03-28 02:59:00,38.5,29.1,29.91,NW,310,0.0,0.0,69,0.00,,,0.00,meteohub,2013-03-28 06:59:00,
2013-03-28 03:05:00,38.3,28.9,29.91,NW,310,0.0,0.0,69,0.00,,,0.00,meteohub,2013-03-28 07:05:00,
2013-03-28 03:10:00,38.1,29.1,29.91,NW,310,0.0,0.0,70,0.00,,,0.00,meteohub,2013-03-28 07:10:00,
2013-03-28 03:15:00,38.1,29.1,29.92,NW,310,0.0,0.0,70,0.00,,,0.00,meteohub,2013-03-28 07:15:00,
2013-03-28 03:20:00,37.9,29.1,29.92,NW,310,0.0,0.0,70,0.00,,,0.00,meteohub,2013-03-28 07:20:00,
2013-03-28 03:25:00,37.9,29.3,29.91,NW,310,0.0,0.0,71,0.00,,,0.00,meteohub,2013-03-28 07:25:00,
2013-03-28 03:30:00,37.9,29.3,29.92,NW,310,0.0,0.0,71,0.00,,,0.00,meteohub,2013-03-28 07:30:00,
2013-03-28 03:35:00,37.9,29.3,29.92,NW,310,0.0,0.0,71,0.00,,,0.00,meteohub,2013-03-28 07:35:00,
2013-03-28 03:40:00,37.9,29.3,29.92,NW,310,0.0,0.0,71,0.00,,,0.00,meteohub,2013-03-28 07:40:00,
2013-03-28 03:45:00,37.8,29.1,29.91,NW,310,0.0,0.0,71,0.00,,,0.00,meteohub,2013-03-28 07:45:00,
2013-03-28 03:50:00,37.8,29.1,29.92,NW,310,0.0,0.0,71,0.00,,,0.00,meteohub,2013-03-28 07:50:00,
2013-03-28 03:56:00,37.6,29.3,29.92,NW,310,0.0,0.0,72,0.00,,,0.00,meteohub,2013-03-28 07:56:00,
2013-03-28 04:01:00,37.4,29.1,29.92,NW,310,0.0,0.0,72,0.00,,,0.00,meteohub,2013-03-28 08:01:00,
2013-03-28 04:06:00,37.2,29.1,29.92,NW,310,0.0,0.0,72,0.00,,,0.00,meteohub,2013-03-28 08:06:00,
2013-03-28 04:11:00,37.0,28.9,29.92,NW,310,0.0,0.0,72,0.00,,,0.00,meteohub,2013-03-28 08:11:00,
2013-03-28 04:16:00,37.0,29.1,29.92,NW,310,0.0,0.0,73,0.00,,,0.00,meteohub,2013-03-28 08:16:00,
2013-03-28 04:21:00,37.0,29.1,29.92,NW,310,0.0,0.0,73,0.00,,,0.00,meteohub,2013-03-28 08:21:00,
2013-03-28 04:26:00,37.0,29.1,29.92,North,-999,-999.0,0.0,73,0.00,,,0.00,meteohub,2013-03-28 08:26:00,
2013-03-28 04:32:00,36.9,28.9,29.92,NW,310,0.0,0.0,73,0.00,,,0.00,meteohub,2013-03-28 08:32:00,
2013-03-28 04:37:00,36.9,29.3,29.92,NW,310,0.0,0.0,74,0.00,,,0.00,meteohub,2013-03-28 08:37:00,
2013-03-28 04:42:00,36.9,29.3,29.92,NW,310,0.0,0.0,74,0.00,,,0.00,meteohub,2013-03-28 08:42:00,
2013-03-28 04:47:00,36.7,29.1,29.92,NW,310,0.0,0.0,74,0.00,,,0.00,meteohub,2013-03-28 08:47:00,
2013-03-28 04:52:00,36.7,29.1,29.92,NW,310,0.0,0.0,74,0.00,,,0.00,meteohub,2013-03-28 08:52:00,
2013-03-28 04:57:00,36.7,29.1,29.92,NW,310,0.0,0.0,74,0.00,,,0.00,meteohub,2013-03-28 08:57:00,
2013-03-28 05:02:00,36.7,29.5,29.92,NW,310,0.0,0.0,75,0.00,,,0.00,meteohub,2013-03-28 09:02:00,
2013-03-28 05:07:00,36.7,29.5,29.93,NW,310,0.0,0.0,75,0.00,,,0.00,meteohub,2013-03-28 09:07:00,
2013-03-28 05:12:00,36.7,29.5,29.92,NW,310,0.0,0.0,75,0.00,,,0.00,meteohub,2013-03-28 09:12:00,
2013-03-28 05:17:00,36.7,29.5,29.92,NW,310,0.0,0.0,75,0.00,,,0.00,meteohub,2013-03-28 09:17:00,
2013-03-28 05:22:00,36.7,29.5,29.93,NW,310,0.0,0.0,75,0.00,,,0.00,meteohub,2013-03-28 09:22:00,
2013-03-28 05:27:00,36.9,29.7,29.93,NW,310,0.0,0.0,75,0.00,,,0.00,meteohub,2013-03-28 09:27:00,
2013-03-28 05:32:00,36.7,29.5,29.93,NW,310,0.0,0.0,75,0.00,,,0.00,meteohub,2013-03-28 09:32:00,
2013-03-28 05:37:00,36.7,29.5,29.93,NW,310,0.0,0.0,75,0.00,,,0.00,meteohub,2013-03-28 09:37:00,
2013-03-28 05:42:00,36.7,29.5,29.93,NW,310,0.0,0.0,75,0.00,,,0.00,meteohub,2013-03-28 09:42:00,
2013-03-28 05:47:00,36.7,29.5,29.93,NW,310,0.0,0.0,75,0.00,,,0.00,meteohub,2013-03-28 09:47:00,
2013-03-28 05:52:00,36.3,29.5,29.93,NW,310,0.0,0.0,76,0.00,,,0.00,meteohub,2013-03-28 09:52:00,
2013-03-28 05:57:00,36.1,29.3,29.93,NW,310,0.0,0.0,76,0.00,,,0.00,meteohub,2013-03-28 09:57:00,
2013-03-28 06:02:00,36.3,29.5,29.93,NW,310,0.0,0.0,76,0.00,,,0.00,meteohub,2013-03-28 10:02:00,
2013-03-28 06:07:00,36.3,29.8,29.94,NW,310,0.0,0.0,77,0.00,,,0.00,meteohub,2013-03-28 10:07:00,
2013-03-28 06:12:00,36.3,29.5,29.94,NW,310,0.0,0.0,76,0.00,,,0.00,meteohub,2013-03-28 10:12:00,
2013-03-28 06:17:00,36.3,29.5,29.94,NW,310,0.0,0.0,76,0.00,,,0.00,meteohub,2013-03-28 10:17:00,
2013-03-28 06:22:00,36.3,29.8,29.94,NW,310,0.0,0.0,77,0.00,,,0.00,meteohub,2013-03-28 10:22:00,
2013-03-28 06:28:00,36.3,29.8,29.94,NW,310,0.0,0.0,77,0.00,,,0.00,meteohub,2013-03-28 10:28:00,
2013-03-28 06:33:00,36.1,29.7,29.94,NW,310,0.0,0.0,77,0.00,,,0.00,meteohub,2013-03-28 10:33:00,
2013-03-28 06:38:00,36.1,29.7,29.94,NW,310,0.0,0.0,77,0.00,,,0.00,meteohub,2013-03-28 10:38:00,
2013-03-28 06:43:00,36.1,29.7,29.94,NW,310,0.0,0.0,77,0.00,,,0.00,meteohub,2013-03-28 10:43:00,
2013-03-28 06:48:00,36.1,29.7,29.94,NW,310,0.0,0.0,77,0.00,,,0.00,meteohub,2013-03-28 10:48:00,
2013-03-28 06:53:00,36.1,29.7,29.95,NW,310,0.0,0.0,77,0.00,,,0.00,meteohub,2013-03-28 10:53:00,
2013-03-28 06:58:00,36.1,30.0,29.95,NW,310,0.0,0.0,78,0.00,,,0.00,meteohub,2013-03-28 10:58:00,
2013-03-28 07:03:00,36.3,29.8,29.95,NW,310,0.0,0.0,77,0.00,,,0.00,meteohub,2013-03-28 11:03:00,
2013-03-28 07:08:00,36.3,29.8,29.95,NW,310,0.0,0.0,77,0.00,,,0.00,meteohub,2013-03-28 11:08:00,
2013-03-28 07:13:00,36.3,29.8,29.95,NW,310,0.0,0.0,77,0.00,,,0.00,meteohub,2013-03-28 11:13:00,
2013-03-28 07:19:00,36.5,30.4,29.95,NW,310,0.0,0.0,78,0.00,,,0.00,meteohub,2013-03-28 11:19:00,
2013-03-28 07:24:00,36.7,30.6,29.95,NW,310,0.0,0.0,78,0.00,,,0.00,meteohub,2013-03-28 11:24:00,
2013-03-28 07:29:00,36.9,30.6,29.95,NW,310,0.0,0.0,78,0.00,,,0.00,meteohub,2013-03-28 11:29:00,
2013-03-28 07:34:00,37.0,30.7,29.95,NW,310,0.0,0.0,78,0.00,,,0.00,meteohub,2013-03-28 11:34:00,
2013-03-28 07:39:00,37.4,30.9,29.96,NW,310,0.0,0.0,77,0.00,,,0.00,meteohub,2013-03-28 11:39:00,
2013-03-28 07:44:00,37.8,31.3,29.96,NW,310,0.0,0.0,77,0.00,,,0.00,meteohub,2013-03-28 11:44:00,
2013-03-28 07:49:00,38.1,31.3,29.96,NW,310,0.0,0.0,76,0.00,,,0.00,meteohub,2013-03-28 11:49:00,
2013-03-28 07:54:00,38.5,31.6,29.96,NW,310,0.0,0.0,76,0.00,,,0.00,meteohub,2013-03-28 11:54:00,
2013-03-28 07:59:00,38.8,32.0,29.96,NW,310,0.0,0.0,76,0.00,,,0.00,meteohub,2013-03-28 11:59:00,
2013-03-28 08:04:00,39.4,32.2,29.96,NW,310,0.0,0.0,75,0.00,,,0.00,meteohub,2013-03-28 12:04:00,
2013-03-28 08:09:00,39.6,32.4,29.96,NW,310,0.0,0.0,75,0.00,,,0.00,meteohub,2013-03-28 12:09:00,
2013-03-28 08:14:00,39.7,32.2,29.96,NW,310,0.0,0.0,74,0.00,,,0.00,meteohub,2013-03-28 12:14:00,
2013-03-28 08:19:00,39.9,32.4,29.97,NW,310,0.0,0.0,74,0.00,,,0.00,meteohub,2013-03-28 12:19:00,
2013-03-28 08:25:00,40.3,33.1,29.97,NW,310,0.0,0.0,75,0.00,,,0.00,meteohub,2013-03-28 12:25:00,
2013-03-28 08:30:00,40.3,32.7,29.97,NW,310,0.0,0.0,74,0.00,,,0.00,meteohub,2013-03-28 12:30:00,
2013-03-28 08:35:00,40.5,33.1,29.97,NW,310,0.0,0.0,75,0.00,,,0.00,meteohub,2013-03-28 12:35:00,
2013-03-28 08:40:00,40.6,33.3,29.97,NW,310,0.0,0.0,75,0.00,,,0.00,meteohub,2013-03-28 12:40:00,
2013-03-28 08:45:00,40.6,33.1,29.97,NW,310,0.0,0.0,74,0.00,,,0.00,meteohub,2013-03-28 12:45:00,
2013-03-28 08:50:00,40.8,33.4,29.97,NW,310,0.0,0.0,75,0.00,,,0.00,meteohub,2013-03-28 12:50:00,
2013-03-28 08:55:00,40.8,33.3,29.97,NW,310,0.0,0.0,74,0.00,,,0.00,meteohub,2013-03-28 12:55:00,
2013-03-28 09:00:00,40.8,33.8,29.97,NW,310,0.0,0.0,76,0.00,,,0.00,meteohub,2013-03-28 13:00:00,
2013-03-28 09:05:00,40.6,33.6,29.97,NW,310,0.0,0.0,76,0.00,,,0.00,meteohub,2013-03-28 13:05:00,
2013-03-28 09:10:00,40.6,33.6,29.97,NW,310,0.0,0.0,76,0.00,,,0.00,meteohub,2013-03-28 13:10:00,
2013-03-28 09:15:00,40.5,33.8,29.97,NW,310,0.0,0.0,77,0.00,,,0.00,meteohub,2013-03-28 13:15:00,
2013-03-28 09:20:00,40.5,34.2,29.97,NW,310,0.0,0.0,78,0.00,,,0.00,meteohub,2013-03-28 13:20:00,
2013-03-28 09:25:00,40.6,34.3,29.98,NW,310,0.0,0.0,78,0.00,,,0.00,meteohub,2013-03-28 13:25:00,
2013-03-28 09:30:00,40.6,34.3,29.98,NW,310,0.0,0.0,78,0.00,,,0.00,meteohub,2013-03-28 13:30:00,
2013-03-28 09:35:00,40.6,34.7,29.98,NW,310,0.0,0.0,79,0.00,,,0.00,meteohub,2013-03-28 13:35:00,
2013-03-28 09:41:00,40.8,34.9,29.98,NW,310,0.0,0.0,79,0.00,,,0.00,meteohub,2013-03-28 13:41:00,
2013-03-28 09:46:00,41.0,35.2,29.98,NW,310,0.0,0.0,80,0.00,,,0.00,meteohub,2013-03-28 13:46:00,
2013-03-28 09:51:00,40.8,34.5,29.98,NW,310,0.0,0.0,78,0.00,,,0.00,meteohub,2013-03-28 13:51:00,
2013-03-28 09:56:00,40.6,34.9,29.98,NW,310,0.0,0.0,80,0.00,,,0.00,meteohub,2013-03-28 13:56:00,
2013-03-28 10:01:00,40.8,35.1,29.98,NW,310,0.0,0.0,80,0.00,,,0.00,meteohub,2013-03-28 14:01:00,
2013-03-28 10:06:00,41.5,35.6,29.98,NW,310,0.0,0.0,79,0.00,,,0.00,meteohub,2013-03-28 14:06:00,
2013-03-28 10:11:00,41.9,35.6,29.98,NW,310,0.0,0.0,78,0.00,,,0.00,meteohub,2013-03-28 14:11:00,
2013-03-28 10:16:00,42.1,35.8,29.98,NW,310,0.0,0.0,78,0.00,,,0.00,meteohub,2013-03-28 14:16:00,
2013-03-28 10:22:00,42.4,36.1,29.99,NW,310,0.0,0.0,78,0.00,,,0.00,meteohub,2013-03-28 14:22:00,
2013-03-28 10:27:00,42.8,35.4,29.99,NW,310,0.0,0.0,75,0.00,,,0.00,meteohub,2013-03-28 14:27:00,
2013-03-28 10:32:00,43.0,35.6,29.99,NW,310,0.0,0.0,75,0.00,,,0.00,meteohub,2013-03-28 14:32:00,
2013-03-28 10:37:00,43.2,35.4,29.99,NW,310,0.0,0.0,74,0.00,,,0.00,meteohub,2013-03-28 14:37:00,
2013-03-28 10:42:00,43.0,35.6,29.98,NW,310,0.0,0.0,75,0.00,,,0.00,meteohub,2013-03-28 14:42:00,
2013-03-28 10:47:00,44.1,36.7,29.99,NW,310,0.0,0.0,75,0.00,,,0.00,meteohub,2013-03-28 14:47:00,
2013-03-28 10:52:00,44.8,37.0,29.99,NW,310,0.0,0.0,74,0.00,,,0.00,meteohub,2013-03-28 14:52:00,
2013-03-28 10:57:00,45.0,36.5,29.99,NW,310,0.0,0.0,72,0.00,,,0.00,meteohub,2013-03-28 14:57:00,
2013-03-28 11:02:00,45.5,37.8,29.99,NW,310,0.0,0.0,74,0.00,,,0.00,meteohub,2013-03-28 15:02:00,
2013-03-28 11:08:00,46.2,37.0,29.99,NW,310,0.0,0.0,70,0.00,,,0.00,meteohub,2013-03-28 15:08:00,
2013-03-28 11:13:00,45.9,36.7,29.99,NW,310,0.0,0.0,70,0.00,,,0.00,meteohub,2013-03-28 15:13:00,
2013-03-28 11:17:00,45.7,36.9,29.99,NW,310,0.0,0.0,71,0.00,,,0.00,meteohub,2013-03-28 15:17:00,
2013-03-28 11:18:00,45.3,35.8,29.99,NW,310,0.0,0.0,69,0.00,,,0.00,meteohub,2013-03-28 15:18:00,
2013-03-28 11:23:00,44.6,35.8,29.99,NW,310,0.0,0.0,71,0.00,,,0.00,meteohub,2013-03-28 15:23:00,
2013-03-28 11:28:00,44.4,36.0,29.99,NW,310,0.0,0.0,72,0.77,,,0.77,meteohub,2013-03-28 15:28:00,
2013-03-28 11:33:00,45.0,35.8,29.98,NW,310,0.0,0.0,70,1.49,,,1.49,meteohub,2013-03-28 15:33:00,
2013-03-28 11:38:00,45.3,36.5,29.99,NW,310,0.0,0.0,71,2.97,,,2.97,meteohub,2013-03-28 15:38:00,
2013-03-28 11:43:00,45.7,36.9,29.98,NW,310,0.0,0.0,71,3.27,,,3.27,meteohub,2013-03-28 15:43:00,
2013-03-28 11:48:00,46.4,36.5,29.98,NW,310,0.0,0.0,68,3.55,,,3.55,meteohub,2013-03-28 15:48:00,
2013-03-28 11:54:00,46.6,36.1,29.99,NW,310,0.0,0.0,67,3.56,,,3.56,meteohub,2013-03-28 15:54:00,
2013-03-28 11:59:00,46.6,35.8,29.99,NW,310,0.0,0.0,66,3.56,,,3.56,meteohub,2013-03-28 15:59:00,
2013-03-28 12:04:00,46.8,36.3,29.99,NW,310,0.0,0.0,67,3.56,,,3.56,meteohub,2013-03-28 16:04:00,
2013-03-28 12:09:00,47.1,35.2,29.98,NW,310,0.0,0.0,63,3.56,,,3.56,meteohub,2013-03-28 16:09:00,
2013-03-28 12:14:00,47.7,36.1,29.98,NW,310,0.0,0.0,64,3.56,,,3.56,meteohub,2013-03-28 16:14:00,
2013-03-28 12:19:00,47.7,35.6,29.99,NW,310,0.0,0.0,63,3.56,,,3.56,meteohub,2013-03-28 16:19:00,
2013-03-28 12:24:00,47.5,35.6,29.99,NW,310,0.0,0.0,63,3.56,,,3.56,meteohub,2013-03-28 16:24:00,
2013-03-28 12:29:00,47.8,36.3,29.98,NW,310,0.0,0.0,64,2.43,,,3.56,meteohub,2013-03-28 16:29:00,
2013-03-28 12:34:00,48.0,34.9,29.98,NW,310,0.0,0.0,60,1.31,,,3.56,meteohub,2013-03-28 16:34:00,
2013-03-28 12:39:00,48.0,35.2,29.98,NW,310,0.0,0.0,61,0.30,,,3.56,meteohub,2013-03-28 16:39:00,
2013-03-28 12:44:00,48.0,35.2,29.98,NW,310,0.0,0.0,61,0.27,,,3.56,meteohub,2013-03-28 16:44:00,
2013-03-28 12:50:00,48.0,36.0,29.98,NW,310,0.0,0.0,63,0.00,,,3.56,meteohub,2013-03-28 16:50:00,
2013-03-28 12:55:00,48.0,36.0,29.98,NW,310,0.0,0.0,63,0.00,,,3.56,meteohub,2013-03-28 16:55:00,
2013-03-28 13:00:00,48.6,35.8,29.98,NW,310,0.0,0.0,61,0.00,,,3.56,meteohub,2013-03-28 17:00:00,
2013-03-28 13:05:00,49.5,36.1,29.98,NW,310,0.0,0.0,60,0.00,,,3.56,meteohub,2013-03-28 17:05:00,
2013-03-28 13:10:00,49.5,33.4,29.98,NW,310,0.0,0.0,54,0.00,,,3.56,meteohub,2013-03-28 17:10:00,
2013-03-28 13:15:00,48.9,34.0,29.98,NW,310,0.0,0.0,56,0.00,,,3.56,meteohub,2013-03-28 17:15:00,
2013-03-28 13:20:00,49.3,35.6,29.97,NW,310,0.0,0.0,59,0.00,,,3.56,meteohub,2013-03-28 17:20:00,
2013-03-28 13:25:00,49.8,34.3,29.97,NW,310,0.0,0.0,55,0.00,,,3.56,meteohub,2013-03-28 17:25:00,
2013-03-28 13:30:00,49.3,33.8,29.97,NW,310,0.0,0.0,55,0.00,,,3.56,meteohub,2013-03-28 17:30:00,
2013-03-28 13:35:00,49.5,34.0,29.97,NW,310,0.0,0.0,55,0.00,,,3.56,meteohub,2013-03-28 17:35:00,
2013-03-28 13:40:00,49.8,34.3,29.97,NW,310,0.0,0.0,55,0.00,,,3.56,meteohub,2013-03-28 17:40:00,
2013-03-28 13:45:00,50.4,34.3,29.97,NW,310,0.0,0.0,54,0.00,,,3.56,meteohub,2013-03-28 17:45:00,
2013-03-28 13:50:00,49.8,33.4,29.97,NW,310,0.0,0.0,53,0.00,,,3.56,meteohub,2013-03-28 17:50:00,
2013-03-28 13:55:00,49.5,33.4,29.97,NW,310,0.0,0.0,54,0.00,,,3.56,meteohub,2013-03-28 17:55:00,
2013-03-28 14:00:00,49.6,33.6,29.96,NW,310,0.0,0.0,54,0.00,,,3.56,meteohub,2013-03-28 18:00:00,
2013-03-28 14:06:00,49.8,33.8,29.97,NW,310,0.0,0.0,54,0.00,,,3.56,meteohub,2013-03-28 18:06:00,
2013-03-28 14:11:00,50.5,33.6,29.97,NW,310,0.0,0.0,52,0.00,,,3.56,meteohub,2013-03-28 18:11:00,
2013-03-28 14:16:00,50.5,33.1,29.97,NW,310,0.0,0.0,51,0.00,,,3.56,meteohub,2013-03-28 18:16:00,
2013-03-28 14:21:00,49.8,32.9,29.97,NW,310,0.0,0.0,52,0.00,,,3.56,meteohub,2013-03-28 18:21:00,
2013-03-28 14:27:00,49.5,33.1,29.97,NW,310,0.0,0.0,53,0.00,,,3.56,meteohub,2013-03-28 18:27:00,
2013-03-28 14:32:00,49.3,32.9,29.97,NW,310,0.0,0.0,53,0.00,,,3.56,meteohub,2013-03-28 18:32:00,
2013-03-28 14:37:00,49.3,32.4,29.97,NW,310,0.0,0.0,52,0.59,,,4.15,meteohub,2013-03-28 18:37:00,
2013-03-28 14:42:00,49.3,32.9,29.97,NW,310,0.0,0.0,53,1.31,,,4.87,meteohub,2013-03-28 18:42:00,
2013-03-28 14:47:00,49.3,33.3,29.97,NW,310,0.0,0.0,54,2.67,,,6.23,meteohub,2013-03-28 18:47:00,
2013-03-28 14:52:00,49.5,33.1,29.97,NW,310,0.0,0.0,53,3.26,,,6.82,meteohub,2013-03-28 18:52:00,
2013-03-28 14:57:00,49.8,33.8,29.96,NW,310,0.0,0.0,54,4.74,,,8.30,meteohub,2013-03-28 18:57:00,
2013-03-28 15:02:00,50.5,32.5,29.96,NW,310,0.0,0.0,50,4.77,,,8.33,meteohub,2013-03-28 19:02:00,
2013-03-28 15:08:00,50.5,32.5,29.96,NW,310,0.0,0.0,50,4.77,,,8.33,meteohub,2013-03-28 19:08:00,
2013-03-28 15:13:00,50.7,32.7,29.96,NW,310,0.0,0.0,50,4.77,,,8.33,meteohub,2013-03-28 19:13:00,
2013-03-28 15:18:00,50.7,33.3,29.96,NW,310,0.0,0.0,51,4.77,,,8.33,meteohub,2013-03-28 19:18:00,
2013-03-28 15:23:00,51.3,32.7,29.96,NW,310,0.0,0.0,49,4.77,,,8.33,meteohub,2013-03-28 19:23:00,
2013-03-28 15:28:00,50.7,31.8,29.96,NW,310,0.0,0.0,48,4.77,,,8.33,meteohub,2013-03-28 19:28:00,
2013-03-28 15:33:00,50.4,32.4,29.96,NW,310,0.0,0.0,50,4.77,,,8.33,meteohub,2013-03-28 19:33:00,
2013-03-28 15:38:00,50.2,33.3,29.96,NW,310,0.0,0.0,52,4.30,,,8.69,meteohub,2013-03-28 19:38:00,
2013-03-28 15:43:00,49.8,32.4,29.96,NW,310,0.0,0.0,51,3.83,,,9.41,meteohub,2013-03-28 19:43:00,
2013-03-28 15:48:00,49.5,31.6,29.96,NW,310,0.0,0.0,50,4.51,,,10.97,meteohub,2013-03-28 19:48:00,
2013-03-28 15:53:00,49.3,32.0,29.96,NW,310,0.0,0.0,51,3.49,,,11.07,meteohub,2013-03-28 19:53:00,
2013-03-28 15:58:00,48.9,32.0,29.96,NW,310,0.0,0.0,52,2.74,,,11.07,meteohub,2013-03-28 19:58:00,
2013-03-28 16:04:00,48.7,32.4,29.96,NW,310,0.0,0.0,53,2.74,,,11.07,meteohub,2013-03-28 20:04:00,
2013-03-28 16:09:00,48.6,31.8,29.96,NW,310,0.0,0.0,52,2.74,,,11.07,meteohub,2013-03-28 20:09:00,
2013-03-28 16:14:00,48.4,32.0,29.96,NW,310,0.0,0.0,53,2.74,,,11.07,meteohub,2013-03-28 20:14:00,
2013-03-28 16:19:00,48.2,32.4,29.96,NW,310,0.0,0.0,54,2.74,,,11.07,meteohub,2013-03-28 20:19:00,
2013-03-28 16:24:00,47.8,32.5,29.97,NW,310,0.0,0.0,55,2.74,,,11.07,meteohub,2013-03-28 20:24:00,
2013-03-28 16:29:00,47.8,32.0,29.97,NW,310,0.0,0.0,54,2.74,,,11.07,meteohub,2013-03-28 20:29:00,
2013-03-28 16:34:00,47.7,32.4,29.96,NW,310,0.0,0.0,55,2.74,,,11.07,meteohub,2013-03-28 20:34:00,
2013-03-28 16:39:00,47.7,32.4,29.97,NW,310,0.0,0.0,55,2.02,,,11.07,meteohub,2013-03-28 20:39:00,
2013-03-28 16:44:00,47.7,32.7,29.97,NW,310,0.0,0.0,56,0.82,,,11.07,meteohub,2013-03-28 20:44:00,
2013-03-28 16:49:00,47.8,32.9,29.97,NW,310,0.0,0.0,56,0.00,,,11.07,meteohub,2013-03-28 20:49:00,
2013-03-28 16:54:00,47.8,32.5,29.97,NW,310,0.0,0.0,55,0.00,,,11.07,meteohub,2013-03-28 20:54:00,
2013-03-28 16:59:00,48.0,31.6,29.97,NW,310,0.0,0.0,53,0.00,,,11.07,meteohub,2013-03-28 20:59:00,
2013-03-28 17:04:00,48.0,31.6,29.97,NW,310,0.0,0.0,53,0.07,,,11.14,meteohub,2013-03-28 21:04:00,
2013-03-28 17:09:00,48.2,31.8,29.97,NW,310,0.0,0.0,53,1.55,,,12.62,meteohub,2013-03-28 21:09:00,
2013-03-28 17:14:00,48.6,32.7,29.97,NW,310,0.0,0.0,54,2.15,,,13.22,meteohub,2013-03-28 21:14:00,
2013-03-28 17:19:00,48.9,32.5,29.97,NW,310,0.0,0.0,53,3.52,,,14.59,meteohub,2013-03-28 21:19:00,
2013-03-28 17:25:00,49.3,33.3,29.97,NW,310,0.0,0.0,54,4.17,,,15.24,meteohub,2013-03-28 21:25:00,
2013-03-28 17:30:00,49.6,32.7,29.98,NW,310,0.0,0.0,52,4.81,,,15.88,meteohub,2013-03-28 21:30:00,
2013-03-28 17:35:00,50.0,32.2,29.98,NW,310,0.0,0.0,50,5.32,,,17.10,meteohub,2013-03-28 21:35:00,
2013-03-28 17:40:00,50.5,32.5,29.98,NW,310,0.0,0.0,50,6.03,,,18.13,meteohub,2013-03-28 21:40:00,
2013-03-28 17:45:00,50.5,32.0,29.98,NW,310,0.0,0.0,49,7.06,,,18.13,meteohub,2013-03-28 21:45:00,
2013-03-28 17:50:00,50.2,32.7,29.98,NW,310,0.0,0.0,51,7.29,,,18.36,meteohub,2013-03-28 21:50:00,
2013-03-28 17:55:00,50.4,31.5,29.98,NW,310,0.0,0.0,48,8.77,,,19.84,meteohub,2013-03-28 21:55:00,
2013-03-28 18:00:00,50.4,32.0,29.98,NW,310,0.0,0.0,49,8.78,,,20.32,meteohub,2013-03-28 22:00:00,
2013-03-28 18:05:00,50.2,31.8,29.99,NW,310,0.0,0.0,49,7.46,,,20.32,meteohub,2013-03-28 22:05:00,
2013-03-28 18:10:00,49.6,31.3,29.99,NW,310,0.0,0.0,49,7.77,,,21.52,meteohub,2013-03-28 22:10:00,
2013-03-28 18:15:00,49.3,32.0,29.99,NW,310,0.0,0.0,51,6.91,,,21.94,meteohub,2013-03-28 22:15:00,
2013-03-28 18:20:00,49.3,32.0,29.99,NW,310,0.0,0.0,51,6.68,,,21.94,meteohub,2013-03-28 22:20:00,
2013-03-28 18:25:00,49.1,31.8,29.99,NW,310,0.0,0.0,51,5.57,,,21.94,meteohub,2013-03-28 22:25:00,
2013-03-28 18:30:00,48.7,31.8,29.99,NW,310,0.0,0.0,52,5.31,,,21.94,meteohub,2013-03-28 22:30:00,
2013-03-28 18:35:00,48.7,31.8,29.99,NW,310,0.0,0.0,52,4.08,,,21.94,meteohub,2013-03-28 22:35:00,
2013-03-28 18:40:00,48.4,31.6,30.00,NW,310,0.0,0.0,52,3.81,,,21.94,meteohub,2013-03-28 22:40:00,
2013-03-28 18:45:00,48.2,31.8,30.00,NW,310,0.0,0.0,53,3.81,,,21.94,meteohub,2013-03-28 22:45:00,
2013-03-28 18:51:00,48.0,32.2,30.00,NW,310,0.0,0.0,54,2.98,,,21.94,meteohub,2013-03-28 22:51:00,
2013-03-28 18:56:00,47.8,31.5,30.00,NW,310,0.0,0.0,53,1.86,,,21.94,meteohub,2013-03-28 22:56:00,
2013-03-28 19:01:00,47.8,32.5,30.00,NW,310,0.0,0.0,55,1.62,,,21.94,meteohub,2013-03-28 23:01:00,
2013-03-28 19:06:00,47.7,32.4,30.01,NW,310,0.0,0.0,55,1.42,,,21.94,meteohub,2013-03-28 23:06:00,
2013-03-28 19:11:00,47.5,32.5,30.01,NW,310,0.0,0.0,56,0.30,,,21.94,meteohub,2013-03-28 23:11:00,
2013-03-28 19:16:00,47.3,32.4,30.01,NW,310,0.0,0.0,56,0.00,,,21.94,meteohub,2013-03-28 23:16:00,
2013-03-28 19:21:00,47.1,32.2,30.01,NW,310,0.0,0.0,56,0.00,,,21.94,meteohub,2013-03-28 23:21:00,
2013-03-28 19:26:00,47.1,32.2,30.01,NW,310,0.0,0.0,56,0.00,,,21.94,meteohub,2013-03-28 23:26:00,
2013-03-28 19:32:00,46.9,32.0,30.02,NW,310,0.0,0.0,56,0.00,,,21.94,meteohub,2013-03-28 23:32:00,
2013-03-28 19:37:00,46.9,32.5,30.02,NW,310,0.0,0.0,57,0.00,,,21.94,meteohub,2013-03-28 23:37:00,
2013-03-28 19:42:00,46.8,32.4,30.02,NW,310,0.0,0.0,57,0.00,,,21.94,meteohub,2013-03-28 23:42:00,
2013-03-28 19:47:00,46.8,32.4,30.03,NW,310,0.0,0.0,57,0.00,,,21.94,meteohub,2013-03-28 23:47:00,
2013-03-28 19:52:00,46.6,32.2,30.03,NW,310,0.0,0.0,57,0.00,,,21.94,meteohub,2013-03-28 23:52:00,
2013-03-28 19:57:00,46.6,32.2,30.03,NW,310,0.0,0.0,57,0.00,,,21.94,meteohub,2013-03-28 23:57:00,
2013-03-28 20:02:00,46.6,32.2,30.03,NW,310,0.0,0.0,57,0.00,,,21.94,meteohub,2013-03-29 00:02:00,
2013-03-28 20:07:00,46.6,32.5,30.03,NW,310,0.0,0.0,58,0.00,,,0.00,meteohub,2013-03-29 00:07:00,
2013-03-28 20:12:00,46.4,32.4,30.04,NW,310,0.0,0.0,58,0.00,,,0.00,meteohub,2013-03-29 00:12:00,
2013-03-28 20:17:00,46.2,32.2,30.04,NW,310,0.0,0.0,58,0.00,,,0.00,meteohub,2013-03-29 00:17:00,
2013-03-28 20:22:00,46.2,32.7,30.04,NW,310,0.0,0.0,59,0.00,,,0.00,meteohub,2013-03-29 00:22:00,
2013-03-28 20:27:00,46.2,32.7,30.04,NW,310,0.0,0.0,59,0.00,,,0.00,meteohub,2013-03-29 00:27:00,
2013-03-28 20:32:00,46.0,32.5,30.04,NW,310,0.0,0.0,59,0.00,,,0.00,meteohub,2013-03-29 00:32:00,
2013-03-28 20:37:00,46.0,32.9,30.04,NW,310,0.0,0.0,60,0.00,,,0.00,meteohub,2013-03-29 00:37:00,
2013-03-28 20:42:00,46.0,32.9,30.04,NW,310,0.0,0.0,60,0.00,,,0.00,meteohub,2013-03-29 00:42:00,
2013-03-28 20:47:00,46.0,32.9,30.05,NW,310,0.0,0.0,60,0.00,,,0.00,meteohub,2013-03-29 00:47:00,
2013-03-28 20:52:00,45.9,32.7,30.05,NW,310,0.0,0.0,60,0.00,,,0.00,meteohub,2013-03-29 00:52:00,
2013-03-28 20:57:00,45.9,33.3,30.05,NW,310,0.0,0.0,61,0.00,,,0.00,meteohub,2013-03-29 00:57:00,
2013-03-28 21:02:00,45.9,33.3,30.05,NW,310,0.0,0.0,61,0.00,,,0.00,meteohub,2013-03-29 01:02:00,
2013-03-28 21:07:00,45.9,33.6,30.05,NW,310,0.0,0.0,62,0.00,,,0.00,meteohub,2013-03-29 01:07:00,
2013-03-28 21:13:00,45.7,33.4,30.05,NW,310,0.0,0.0,62,0.00,,,0.00,meteohub,2013-03-29 01:13:00,
2013-03-28 21:18:00,45.7,33.4,30.05,NW,310,0.0,0.0,62,0.00,,,0.00,meteohub,2013-03-29 01:18:00,
2013-03-28 21:23:00,45.5,33.6,30.06,NW,310,0.0,0.0,63,0.00,,,0.00,meteohub,2013-03-29 01:23:00,
2013-03-28 21:28:00,45.3,33.4,30.06,NW,310,0.0,0.0,63,0.00,,,0.00,meteohub,2013-03-29 01:28:00,
2013-03-28 21:33:00,45.3,33.4,30.06,NW,310,0.0,0.0,63,0.00,,,0.00,meteohub,2013-03-29 01:33:00,
2013-03-28 21:38:00,45.3,33.8,30.06,NW,310,0.0,0.0,64,0.00,,,0.00,meteohub,2013-03-29 01:38:00,
2013-03-28 21:43:00,45.1,33.6,30.06,NW,310,0.0,0.0,64,0.00,,,0.00,meteohub,2013-03-29 01:43:00,
2013-03-28 21:48:00,45.1,33.6,30.06,NW,310,0.0,0.0,64,0.00,,,0.00,meteohub,2013-03-29 01:48:00,
2013-03-28 21:53:00,45.1,34.2,30.06,NW,310,0.0,0.0,65,0.00,,,0.00,meteohub,2013-03-29 01:53:00,
2013-03-28 21:59:00,45.0,34.0,30.06,NW,310,0.0,0.0,65,0.00,,,0.00,meteohub,2013-03-29 01:59:00,
2013-03-28 22:04:00,44.8,33.8,30.06,NW,310,0.0,0.0,65,0.00,,,0.00,meteohub,2013-03-29 02:04:00,
2013-03-28 22:09:00,44.8,34.2,30.06,NW,310,0.0,0.0,66,0.00,,,0.00,meteohub,2013-03-29 02:09:00,
2013-03-28 22:14:00,44.8,34.2,30.06,NW,310,0.0,0.0,66,0.00,,,0.00,meteohub,2013-03-29 02:14:00,
2013-03-28 22:19:00,44.6,34.0,30.06,NW,310,0.0,0.0,66,0.00,,,0.00,meteohub,2013-03-29 02:19:00,
2013-03-28 22:24:00,44.6,34.0,30.06,NW,310,0.0,0.0,66,0.00,,,0.00,meteohub,2013-03-29 02:24:00,
2013-03-28 22:29:00,44.4,33.8,30.06,NW,310,0.0,0.0,66,0.00,,,0.00,meteohub,2013-03-29 02:29:00,
2013-03-28 22:35:00,44.6,34.0,30.06,NW,310,0.0,0.0,66,0.00,,,0.00,meteohub,2013-03-29 02:35:00,
2013-03-28 22:40:00,44.4,34.2,30.07,NW,310,0.0,0.0,67,0.00,,,0.00,meteohub,2013-03-29 02:40:00,
2013-03-28 22:45:00,44.4,34.2,30.07,NW,310,0.0,0.0,67,0.00,,,0.00,meteohub,2013-03-29 02:45:00,
2013-03-28 22:50:00,44.4,34.2,30.07,NW,310,0.0,0.0,67,0.00,,,0.00,meteohub,2013-03-29 02:50:00,
2013-03-28 22:55:00,44.4,34.2,30.06,NW,310,0.0,0.0,67,0.00,,,0.00,meteohub,2013-03-29 02:55:00,
2013-03-28 23:00:00,44.4,34.2,30.06,NW,310,0.0,0.0,67,0.00,,,0.00,meteohub,2013-03-29 03:00:00,
2013-03-28 23:05:00,44.4,34.2,30.07,NW,310,0.0,0.0,67,0.00,,,0.00,meteohub,2013-03-29 03:05:00,
2013-03-28 23:10:00,44.4,34.2,30.07,NW,310,0.0,0.0,67,0.00,,,0.00,meteohub,2013-03-29 03:10:00,
2013-03-28 23:16:00,44.4,34.2,30.07,NW,310,0.0,0.0,67,0.00,,,0.00,meteohub,2013-03-29 03:16:00,
2013-03-28 23:21:00,44.2,34.0,30.07,NW,310,0.0,0.0,67,0.00,,,0.00,meteohub,2013-03-29 03:21:00,
2013-03-28 23:26:00,44.2,34.3,30.07,NW,310,0.0,0.0,68,0.00,,,0.00,meteohub,2013-03-29 03:26:00,
2013-03-28 23:31:00,44.1,34.2,30.07,NW,310,0.0,0.0,68,0.00,,,0.00,meteohub,2013-03-29 03:31:00,
2013-03-28 23:36:00,44.1,34.2,30.07,NW,310,0.0,0.0,68,0.00,,,0.00,meteohub,2013-03-29 03:36:00,
2013-03-28 23:41:00,44.1,34.2,30.07,NW,310,0.0,0.0,68,0.00,,,0.00,meteohub,2013-03-29 03:41:00,
2013-03-28 23:46:00,44.1,34.2,30.07,NW,310,0.0,0.0,68,0.00,,,0.00,meteohub,2013-03-29 03:46:00,
2013-03-28 23:51:00,44.2,34.3,30.07,NW,310,0.0,0.0,68,0.00,,,0.00,meteohub,2013-03-29 03:51:00,
2013-03-28 23:57:00,44.1,34.2,30.07,NW,310,0.0,0.0,68,0.00,,,0.00,meteohub,2013-03-29 03:57:00,